Simultaneous Nadir Overpasses (SNOs) Predictions

Prediction of SNOs between GOES-17 and METOP-B Satellite Orbit:

Table of predicted SNOs for the next 14.0 days since TLE Epoch: 10/24/2025
Index Date Time (GOES-17) GOES-17 Lat,Lon METOP-B Lat,Lon Distance(km) Time Diff (sec)
1 10/26/2025 03:17:58 -0.31, -89.47 -1.30, -93.84 498.00 80
2 10/27/2025 02:54:46 -0.31, -89.47 -0.16, -88.87 67.68 80
3 10/28/2025 15:13:48 0.32, -89.52 1.20, -93.48 450.57 80
4 10/29/2025 14:53:15 0.32, -89.52 0.07, -88.52 115.47 80
5 10/31/2025 03:15:04 -0.33, -89.47 -1.16, -93.14 418.98 80
6 11/01/2025 02:51:51 -0.33, -89.47 -0.02, -88.18 147.22 80
7 11/02/2025 15:10:54 0.33, -89.53 1.05, -92.79 370.48 80
8 11/03/2025 14:53:00 0.33, -89.54 -0.04, -87.81 196.02 80
9 11/05/2025 03:12:09 -0.33, -89.48 -0.98, -92.45 337.93 80
10 11/06/2025 02:48:56 -0.33, -89.48 0.11, -87.48 228.42 80
11 11/07/2025 15:07:58 0.34, -89.55 0.91, -92.08 289.51 80
